Аланиjа, метеограме

Аланиjа: време по сату
Понедељак, 28 Септембра
Време Падавине Температура Осећа се Притисак Влажност Ветар
18:00 0 мм +31.2° +31.3° 757.000 мм.ж.с 37% 2 м/с, СЗ
19:00 0 мм +30.2° +30° 757.000 мм.ж.с 36% 2 м/с, СЗ
20:00 0 мм +29.1° +28.7° 757.000 мм.ж.с 35% 2 м/с, СЗ
21:00 0 мм +29° +28.5° 757.000 мм.ж.с 34% 2 м/с, С
22:00 0 мм +28.9° +28.4° 758.000 мм.ж.с 34% 2 м/с, С
23:00 0 мм +28.8° +28.2° 758.000 мм.ж.с 33% 2 м/с, С
Уторак, 29 Септембра
Време Падавине Температура Осећа се Притисак Влажност Ветар
00:00 0 мм +28.6° +28.1° 758.000 мм.ж.с 34% 2 м/с, С
01:00 0 мм +28.5° +28° 758.000 мм.ж.с 34% 2 м/с, С
02:00 0 мм +28.4° +27.8° 757.000 мм.ж.с 34% 2 м/с, С
03:00 0 мм +28.2° +27.7° 757.000 мм.ж.с 35% 2 м/с, СИ
04:00 0 мм +28° +27.7° 757.000 мм.ж.с 36% 2 м/с, СИ
05:00 0 мм +27.9° +27.6° 757.000 мм.ж.с 37% 2 м/с, СИ
06:00 0 мм +30° +29.5° 757.000 мм.ж.с 33% 2 м/с, СИ
07:00 0 мм +32.1° +31.5° 757.000 мм.ж.с 30% 1 м/с, И
08:00 0 мм +34.2° +33.5° 757.000 мм.ж.с 27% 1 м/с, И
09:00 0 мм +35.2° +34.2° 756.000 мм.ж.с 24% 2 м/с, Ј
10:00 0 мм +36.2° +35° 756.000 мм.ж.с 22% 2 м/с, ЈЗ
11:00 0 мм +37.2° +35.7° 756.000 мм.ж.с 19% 3 м/с, ЈЗ
12:00 0 мм +37.1° +35.7° 755.000 мм.ж.с 20% 3 м/с, ЈЗ
13:00 0 мм +37° +35.7° 755.000 мм.ж.с 20% 3 м/с, ЈЗ
14:00 0 мм +37° +35.7° 754.000 мм.ж.с 21% 3 м/с, ЈЗ
15:00 0 мм +35.5° +34.6° 754.000 мм.ж.с 24% 2 м/с, ЈЗ
16:00 0 мм +34.1° +33.5° 754.000 мм.ж.с 28% 2 м/с, ЈЗ
17:00 0 мм +32.7° +32.3° 753.000 мм.ж.с 31% 2 м/с, Ј
18:00 0 мм +31.2° +30.8° 753.000 мм.ж.с 33% 1 м/с, ЈИ
19:00 0 мм +29.7° +29.3° 753.000 мм.ж.с 34% 1 м/с, ЈИ
20:00 0 мм +28.2° +27.8° 753.000 мм.ж.с 36% 1 м/с, ЈИ
21:00 0 мм +27.8° +27.4° 753.000 мм.ж.с 37% 1 м/с, Ј
22:00 0 мм +27.4° +27° 753.000 мм.ж.с 37% 1 м/с, Ј
23:00 0 мм +27° +26.6° 752.000 мм.ж.с 38% 2 м/с, ЈЗ
Среда, 30 Септембра
Време Падавине Температура Осећа се Притисак Влажност Ветар
00:00 0 мм +26.6° +26.3° 752.000 мм.ж.с 39% 2 м/с, Ј
01:00 0 мм +26.1° +25.8° 752.000 мм.ж.с 39% 2 м/с, Ј
02:00 0 мм +25.7° +25.4° 751.000 мм.ж.с 40% 3 м/с, ЈИ
03:00 0 мм +25.3° +25.3° 751.000 мм.ж.с 45% 3 м/с, ЈИ
04:00 0 мм +24.9° +25.3° 751.000 мм.ж.с 51% 3 м/с, Ј
05:00 0 мм +24.4° +25.2° 751.000 мм.ж.с 56% 3 м/с, Ј
06:00 0 мм +25.9° +26.4° 751.000 мм.ж.с 50% 3 м/с, Ј
07:00 0 мм +27.3° +27.6° 751.000 мм.ж.с 45% 3 м/с, Ј
08:00 0 мм +28.7° +28.7° 751.000 мм.ж.с 39% 4 м/с, ЈИ
09:00 0 мм +29.7° +29.6° 751.000 мм.ж.с 37% 4 м/с, Ј
10:00 0 мм +30.7° +30.5° 751.000 мм.ж.с 34% 4 м/с, Ј
11:00 0 мм +31.8° +31.3° 750.000 мм.ж.с 31% 5 м/с, Ј
12:00 0 мм +31.5° +31.4° 750.000 мм.ж.с 35% 5 м/с, Ј
13:00 0 мм +31.2° +31.3° 749.000 мм.ж.с 38% 5 м/с, Ј
14:00 0 мм +30.8° +31.4° 749.000 мм.ж.с 42% 4 м/с, ЈЗ
15:00 0 мм +29.4° +30.5° 749.000 мм.ж.с 50% 4 м/с, Ј
16:00 0 мм +27.9° +29.6° 749.000 мм.ж.с 59% 3 м/с, Ј
17:00 0 мм +26.5° +28.4° 749.000 мм.ж.с 67% 3 м/с, Ј

Такође

Meteograms hourly weather Мапе времена Преглед времена
Meteograms hourly weather Мапе времена Преглед времена
 
Време у Србији:
О проjекту
© meteoprog.rs 2003-2020.
Meteoprog.ua - погода в Украине 0.0582
sitemap